Weather History for KCDW - February, 2014

Change the Weather History Date:

Sunday, February 9, 2014

  Actual Average Record
Temperature  
Mean Temperature 20 °F -  
Max Temperature 28 °F 36 °F 58 °F (1965)
Min Temperature 12 °F 17 °F -6 °F (1963)
Degree Days  
Heating Degree Days 45    
Moisture  
Dew Point 12 °F    
Average Humidity 70    
Maximum Humidity 89    
Minimum Humidity 43    
Precipitation  
Precipitation 0.07 in - - ()
Sea Level Pressure  
Sea Level Pressure 30.10 in    
Wind  
Wind Speed 1 mph (SSW)    
Max Wind Speed 8 mph    
Max Gust Speed -    
Visibility 6 miles    
Events Snow    
Averages and records for this station are not official NWS values.
T = Trace of Precipitation, MM = Missing Value Source: NWS Daily Summary

Daily Weather History Graph

Daily Weather History Graph

Search for Another Location

Airport or City:

Trip Planner

Search our weather history database for the weather conditions in past years. The results will help you decide how hot, cold, wet, or windy it might be!

Date:

Astronomy

Feb. 09, 2014 Rise Set
Actual Time 6:58 AM EST 5:24 PM EST
Civil Twilight 6:30 AM EST 5:52 PM EST
Nautical Twilight 5:57 AM EST 6:25 PM EST
Astronomical Twilight 5:26 AM EST 6:57 PM EST
Moon 1:01 PM EST (2/9) 3:02 AM EST (2/9)
Length of Visible Light 11h 22m
Length of Day
10h 25m
Waxing Gibbous, 77% of the Moon is Illuminated
Feb 9
Waxing Gibbous
Feb 14
Full
Feb 22
Last Quarter
Mar 1
New
Mar 8
First Quarter

Hourly Weather History & Observations

Time (EST) Temp. Windchill Dew Point Humidity Pressure Visibility Wind Dir Wind Speed Gust Speed Precip Events Conditions
12:53 AM 16.0 °F - 8.1 °F 71% 30.20 in 10.0 mi Calm Calm - N/A   Clear
1:53 AM 16.0 °F 10.4 °F 7.0 °F 68% 30.20 in 10.0 mi South 3.5 mph - N/A   Clear
2:53 AM 15.1 °F - 5.0 °F 64% 30.19 in 10.0 mi Calm Calm - N/A   Clear
3:53 AM 12.9 °F - 6.1 °F 74% 30.20 in 10.0 mi Calm Calm - N/A   Clear
4:53 AM 12.9 °F - 5.0 °F 71% 30.20 in 10.0 mi Calm Calm - N/A   Overcast
5:53 AM 14.0 °F - 5.0 °F 67% 30.22 in 10.0 mi Calm Calm - N/A   Partly Cloudy
6:53 AM 12.9 °F - 5.0 °F 71% 30.22 in 10.0 mi Calm Calm - N/A   Clear
7:53 AM 14.0 °F - 6.1 °F 71% 30.23 in 10.0 mi Calm Calm - N/A   Clear
8:53 AM 19.0 °F - 3.0 °F 50% 30.23 in 10.0 mi Calm Calm - N/A   Clear
9:53 AM 21.9 °F - 5.0 °F 48% 30.22 in 10.0 mi Calm Calm - N/A   Clear
10:53 AM 23.0 °F - 5.0 °F 46% 30.20 in 10.0 mi Calm Calm - N/A   Clear
11:53 AM 25.0 °F - 6.1 °F 45% 30.17 in 10.0 mi Calm Calm - N/A   Clear
12:53 PM 25.0 °F - 7.0 °F 46% 30.11 in 10.0 mi Calm Calm - N/A   Clear
1:53 PM 27.0 °F - 7.0 °F 43% 30.07 in 10.0 mi Calm Calm - N/A   Partly Cloudy
2:53 PM 28.0 °F - 8.1 °F 43% 30.06 in 10.0 mi Calm Calm - N/A   Scattered Clouds
3:53 PM 28.0 °F 24.2 °F 10.0 °F 47% 30.06 in 10.0 mi Variable 3.5 mph - N/A   Overcast
4:53 PM 27.0 °F 23.0 °F 12.0 °F 53% 30.05 in 10.0 mi Variable 3.5 mph - N/A   Overcast
5:07 PM 26.6 °F 18.2 °F 14.0 °F 59% 30.04 in 2.5 mi South 8.1 mph - 0.00 in Snow Light Snow
5:15 PM 24.8 °F 20.5 °F 15.8 °F 69% 30.04 in 1.8 mi SSW 3.5 mph - 0.00 in Snow Light Snow
5:53 PM 24.1 °F - 19.0 °F 81% 30.06 in 1.2 mi Calm Calm - 0.00 in Snow Light Snow
6:13 PM 23.0 °F - 19.4 °F 86% 30.04 in 1.0 mi Calm Calm - 0.01 in Snow Light Snow
6:28 PM 23.0 °F - 19.4 °F 86% 30.03 in 0.8 mi Calm Calm - 0.02 in Snow Light Snow
6:53 PM 23.0 °F - 19.9 °F 88% 30.06 in 0.8 mi Calm Calm - 0.04 in Snow Light Snow
7:20 PM 23.0 °F - 19.4 °F 86% 30.03 in 1.0 mi Calm Calm - 0.01 in Snow Light Snow
7:41 PM 23.0 °F - 19.4 °F 86% 30.02 in 1.0 mi Calm Calm - 0.02 in Snow Light Snow
7:53 PM 24.1 °F - 19.9 °F 84% 30.04 in 1.2 mi Calm Calm - 0.02 in Snow Light Snow
8:53 PM 23.0 °F - 19.9 °F 88% 30.04 in 1.5 mi Calm Calm - 0.01 in Snow Light Snow
9:13 PM 23.0 °F - 19.4 °F 86% 30.02 in 2.5 mi Calm Calm - 0.00 in Snow Light Snow
9:26 PM 23.0 °F - 19.4 °F 86% 30.02 in 2.5 mi Calm Calm - 0.00 in Snow Light Snow
9:37 PM 23.0 °F 18.4 °F 19.4 °F 86% 30.01 in 3.0 mi SW 3.5 mph - 0.00 in Snow Light Snow
9:53 PM 23.0 °F - 19.9 °F 88% 30.04 in 3.0 mi Calm Calm - 0.00 in Snow Light Snow
10:53 PM 21.9 °F 17.2 °F 18.0 °F 85% 30.04 in 7.0 mi WSW 3.5 mph - 0.00 in   Mostly Cloudy
11:53 PM 19.9 °F 14.9 °F 17.1 °F 89% 30.03 in 7.0 mi SW 3.5 mph - N/A   Clear